| time (UTC) | temp F | wind direction | speed MPH | gust MPH | rain 1hr in | rain 24hr in | rain mn in | humidity % | barometer mb |
| 20260901091607 | 64 | 255 | 4.0 | 7.0 | 0.00 | 0.10 | 0.10 | 85 | 1007.2 |
| 20260901084602 | 62 | 259 | 0.0 | 0.0 | 0.00 | 0.10 | 0.10 | 94 | 1007.1 |
| 20260901083006 | 61 | 336 | 0.0 | 2.0 | 0.00 | 0.10 | 0.10 | 96 | 1007.1 |
| 20260901081506 | 61 | 265 | 2.0 | 4.0 | 0.00 | 0.10 | 0.10 | 97 | 1007.0 |
| 20260901080002 | 60 | 334 | 0.0 | 2.0 | 0.00 | 0.10 | 0.10 | 98 | 1007.1 |
| 20260901074503 | 60 | 319 | 2.0 | 5.0 | 0.00 | 0.10 | 0.10 | 98 | 1007.0 |
| 20260901073013 | 59 | 321 | 2.0 | 4.0 | 0.00 | 0.10 | 0.10 | 98 | 1006.9 |
| 20260901071505 | 59 | 300 | 2.0 | 4.0 | 0.00 | 0.10 | 0.10 | 98 | 1006.9 |
| 20260901070007 | 59 | 202 | 0.0 | 2.0 | 0.00 | 0.10 | 0.10 | 98 | 1006.7 |
| 20260901064605 | 58 | 214 | 0.0 | 2.0 | 0.00 | 0.10 | 0.10 | 98 | 1006.5 |
| 20260901063002 | 58 | 221 | 0.0 | 3.0 | 0.00 | 0.10 | 0.10 | 98 | 1006.5 |
| 20260901061604 | 58 | 214 | 1.0 | 3.0 | 0.00 | 0.10 | 0.10 | 98 | 1006.5 |
| 20260901054503 | 57 | 231 | 0.0 | 2.0 | 0.00 | 0.10 | 0.10 | 98 | 1006.4 |
| 20260901053002 | 57 | 231 | 0.0 | 0.0 | 0.00 | 0.10 | 0.10 | 98 | 1006.4 |
| 20260901051604 | 57 | 231 | 0.0 | 0.0 | 0.00 | 0.10 | 0.10 | 98 | 1006.3 |
| 20260901044506 | 57 | 231 | 0.0 | 0.0 | 0.05 | 0.10 | 0.10 | 98 | 1006.2 |
| 20260901043006 | 57 | 231 | 0.0 | 0.0 | 0.10 | 0.10 | 0.10 | 98 | 1006.1 |
| 20260901041502 | 57 | 231 | 1.0 | 3.0 | 0.10 | 0.10 | 0.10 | 98 | 1006.0 |
| 20260901040105 | 56 | 196 | 0.0 | 3.0 | 0.10 | 0.10 | 0.10 | 98 | 1006.1 |
| 20260901034510 | 56 | 40 | 0.0 | 3.0 | 0.06 | 0.06 | 0.06 | 97 | 1006.0 |
| 20260901033005 | 56 | 137 | 1.0 | 3.0 | 0.00 | 0.00 | 0.00 | 97 | 1006.0 |
| 20260901031602 | 56 | 157 | 1.0 | 3.0 | 0.00 | 0.00 | 0.00 | 97 | 1006.0 |
| 20260901030007 | 56 | 170 | 1.0 | 3.0 | 0.00 | 0.00 | 0.00 | 97 | 1006.0 |
| 20260901024608 | 56 | 90 | 0.0 | 0.0 | 0.00 | 0.00 | 0.00 | 97 | 1005.9 |
| 20260901023009 | 56 | 89 | 1.0 | 2.0 | 0.00 | 0.00 | 0.00 | 97 | 1005.9 |
| 20260901021503 | 56 | 140 | 1.0 | 2.0 | 0.00 | 0.00 | 0.00 | 97 | 1005.8 |
| 20260901020002 | 56 | 133 | 1.0 | 3.0 | 0.00 | 0.00 | 0.00 | 97 | 1005.8 |
| 20260901014605 | 56 | 160 | 1.0 | 3.0 | 0.00 | 0.00 | 0.00 | 97 | 1005.7 |
| 20260901013102 | 56 | 146 | 0.0 | 2.0 | 0.00 | 0.00 | 0.00 | 97 | 1005.7 |
| 20260901011505 | 56 | 142 | 0.0 | 2.0 | 0.00 | 0.00 | 0.00 | 97 | 1005.7 |
| 20260901010006 | 56 | 138 | 0.0 | 2.0 | 0.00 | 0.00 | 0.00 | 97 | 1005.7 |
| 20260901004502 | 56 | 138 | 0.0 | 1.0 | 0.00 | 0.00 | 0.00 | 96 | 1005.6 |
| 20260901003002 | 56 | 138 | 1.0 | 3.0 | 0.00 | 0.00 | 0.00 | 96 | 1005.6 |
| 20260901001510 | 56 | 148 | 0.0 | 0.0 | 0.00 | 0.00 | 0.00 | 96 | 1005.5 |
| 20260901000005 | 56 | 148 | 0.0 | 2.0 | 0.00 | 0.00 | 0.00 | 96 | 1005.5 |
| 20260831234605 | 57 | 348 | 0.0 | 2.0 | 0.00 | 0.00 | 0.00 | 96 | 1005.5 |
| 20260831233102 | 56 | 45 | 0.0 | 0.0 | 0.00 | 0.00 | 0.00 | 95 | 1005.6 |
| 20260831231501 | 56 | 113 | 0.0 | 2.0 | 0.00 | 0.00 | 0.00 | 95 | 1005.6 |
| 20260831230005 | 56 | 11 | 0.0 | 2.0 | 0.00 | 0.00 | 0.00 | 94 | 1005.6 |
| 20260831224601 | 57 | 40 | 0.0 | 1.0 | 0.00 | 0.00 | 0.00 | 94 | 1005.5 |
| 20260831223003 | 57 | 96 | 0.0 | 0.0 | 0.00 | 0.00 | 0.00 | 94 | 1005.6 |
| 20260831221514 | 57 | 95 | 0.0 | 0.0 | 0.00 | 0.00 | 0.00 | 94 | 1005.5 |
| 20260831220017 | 57 | 82 | 0.0 | 2.0 | 0.00 | 0.00 | 0.00 | 94 | 1005.5 |
| 20260831214500 | 57 | 90 | 0.0 | 3.0 | 0.00 | 0.05 | 0.00 | 94 | 1005.5 |
| 20260831213020 | 57 | 91 | 2.0 | 3.0 | 0.00 | 0.05 | 0.00 | 93 | 1005.4 |
| 20260831211504 | 58 | 117 | 0.0 | 0.0 | 0.00 | 0.05 | 0.00 | 93 | 1005.5 |
| 20260831210005 | 58 | 181 | 0.0 | 0.0 | 0.00 | 0.05 | 0.00 | 93 | 1005.4 |
| 20260831204504 | 58 | 181 | 0.0 | 0.0 | 0.00 | 0.05 | 0.00 | 93 | 1005.4 |
| 20260831203134 | 58 | 250 | 0.0 | 0.0 | 0.00 | 0.05 | 0.00 | 92 | 1005.4 |
| 20260831201606 | 58 | 250 | 1.0 | 5.0 | 0.00 | 0.05 | 0.00 | 92 | 1005.2 |
| 20260831200006 | 58 | 126 | 2.0 | 5.0 | 0.00 | 0.05 | 0.00 | 93 | 1005.1 |
| 20260831194610 | 58 | 161 | 2.0 | 3.0 | 0.00 | 0.12 | 0.00 | 93 | 1005.2 |
| 20260831193005 | 58 | 38 | 0.0 | 0.0 | 0.00 | 0.12 | 0.00 | 92 | 1005.2 |
| 20260831191501 | 58 | 200 | 0.0 | 3.0 | 0.00 | 0.12 | 0.00 | 91 | 1005.4 |
| 20260831190008 | 58 | 135 | 0.0 | 2.0 | 0.00 | 0.12 | 0.00 | 90 | 1005.2 |
| 20260831184504 | 59 | 76 | 0.0 | 1.0 | 0.00 | 0.27 | 0.00 | 88 | 1005.2 |
| 20260831183101 | 59 | 76 | 0.0 | 2.0 | 0.00 | 0.27 | 0.00 | 87 | 1005.2 |
| 20260831181503 | 61 | 18 | 0.0 | 1.0 | 0.00 | 0.27 | 0.00 | 85 | 1005.2 |
| 20260831180006 | 62 | 18 | 0.0 | 0.0 | 0.00 | 0.27 | 0.00 | 84 | 1005.0 |
| 20260831174507 | 62 | 18 | 0.0 | 1.0 | 0.00 | 0.28 | 0.00 | 82 | 1005.0 |
| 20260831173005 | 63 | 18 | 0.0 | 1.0 | 0.00 | 0.28 | 0.00 | 82 | 1005.1 |
| 20260831171500 | 63 | 18 | 0.0 | 2.0 | 0.00 | 0.28 | 0.00 | 80 | 1005.0 |
| 20260831170005 | 64 | 23 | 0.0 | 3.0 | 0.00 | 0.28 | 0.00 | 78 | 1005.0 |
| 20260831164503 | 65 | 5 | 2.0 | 3.0 | 0.00 | 0.36 | 0.00 | 77 | 1004.9 |
| 20260831163005 | 66 | 304 | 1.0 | 2.0 | 0.00 | 0.36 | 0.00 | 74 | 1004.9 |
| 20260831161503 | 66 | 337 | 1.0 | 2.0 | 0.00 | 0.36 | 0.00 | 75 | 1004.8 |
| 20260831160134 | 66 | 348 | 2.0 | 3.0 | 0.00 | 0.36 | 0.00 | 75 | 1004.8 |
| 20260831154608 | 66 | 261 | 0.0 | 3.0 | 0.00 | 0.39 | 0.00 | 74 | 1004.9 |
| 20260831153014 | 66 | 314 | 1.0 | 4.0 | 0.00 | 0.39 | 0.00 | 74 | 1004.9 |
| 20260831151601 | 66 | 299 | 2.0 | 5.0 | 0.00 | 0.39 | 0.00 | 75 | 1004.9 |
| 20260831150004 | 64 | 305 | 2.0 | 5.0 | 0.00 | 0.39 | 0.00 | 77 | 1004.9 |
| 20260831144501 | 64 | 289 | 3.0 | 5.0 | 0.00 | 0.41 | 0.00 | 78 | 1005.0 |
| 20260831143001 | 64 | 289 | 3.0 | 5.0 | 0.00 | 0.41 | 0.00 | 79 | 1005.1 |
| 20260831141504 | 64 | 279 | 5.0 | 8.0 | 0.00 | 0.41 | 0.00 | 78 | 1005.1 |
| 20260831140008 | 64 | 212 | 4.0 | 8.0 | 0.00 | 0.41 | 0.00 | 77 | 1005.1 |
| 20260831134505 | 64 | 248 | 3.0 | 9.0 | 0.00 | 0.41 | 0.00 | 77 | 1005.0 |
| 20260831133005 | 65 | 215 | 6.0 | 9.0 | 0.00 | 0.41 | 0.00 | 75 | 1005.0 |
| 20260831131605 | 65 | 192 | 8.0 | 13.0 | 0.00 | 0.41 | 0.00 | 74 | 1004.9 |
| 20260831130005 | 65 | 209 | 6.0 | 10.0 | 0.00 | 0.41 | 0.00 | 76 | 1004.9 |
| 20260831124603 | 64 | 194 | 6.0 | 10.0 | 0.00 | 0.41 | 0.00 | 76 | 1004.9 |
| 20260831123004 | 64 | 208 | 5.0 | 9.0 | 0.00 | 0.41 | 0.00 | 75 | 1004.8 |
| 20260831120012 | 65 | 228 | 6.0 | 14.0 | 0.00 | 0.41 | 0.00 | 74 | 1004.9 |
| 20260831114507 | 65 | 190 | 8.0 | 15.0 | 0.00 | 0.41 | 0.00 | 75 | 1004.9 |
| 20260831113102 | 65 | 182 | 8.0 | 14.0 | 0.00 | 0.41 | 0.00 | 75 | 1004.9 |
| 20260831111500 | 65 | 207 | 8.0 | 12.0 | 0.00 | 0.41 | 0.00 | 77 | 1005.0 |
| 20260831110005 | 65 | 261 | 8.0 | 14.0 | 0.00 | 0.41 | 0.00 | 77 | 1005.0 |
| 20260831104601 | 64 | 201 | 7.0 | 15.0 | 0.00 | 0.41 | 0.00 | 79 | 1005.0 |
| 20260831103003 | 63 | 227 | 7.0 | 13.0 | 0.00 | 0.41 | 0.00 | 81 | 1005.1 |
| 20260831101502 | 62 | 215 | 6.0 | 13.0 | 0.00 | 0.41 | 0.00 | 80 | 1005.0 |
| 20260831100019 | 62 | 223 | 9.0 | 14.0 | 0.00 | 0.41 | 0.00 | 83 | 1005.0 |
| 20260831094609 | 61 | 246 | 8.0 | 15.0 | 0.00 | 0.41 | 0.00 | 82 | 1004.8 |